WetterOnline ( http://www.wetteronline.de )

Wetter aktuell Regensburg

Aktuelles Wetter: Regensburg/Oberhub (371m)

6-stündlich | Neueste Meldungen
Ortszeit Temperatur Wetter
So, 17.02. 19:00 4.5° C leicht bewölkt
So, 17.02. 13:00 7.6° C wolkenlos
So, 17.02. 7:00 -4.4° C wolkenlos
So, 17.02. 1:00 -2.3° C wolkenlos
Sa, 16.02. 19:00 4.5° C wolkenlos
Sa, 16.02. 13:00 7.6° C wolkenlos
Sa, 16.02. 7:00 -4.0° C wolkig
Sa, 16.02. 1:00 -2.1° C wolkenlos
Ortszeit Temperatur Wetter
Mo, 18.02. 0:00 -1.5° C wolkig
So, 17.02. 23:50 -1.5° C wolkig
So, 17.02. 23:40 -1.4° C wolkig
So, 17.02. 23:30 -1.5° C wolkig
So, 17.02. 23:20 -1.5° C wolkig
So, 17.02. 23:10 -1.5° C wolkig
So, 17.02. 23:00 -1.1° C wolkig
So, 17.02. 22:30 -0.2° C wolkig
So, 17.02. 22:00 -0.5° C wolkig
So, 17.02. 21:30 0.2° C wolkig
So, 17.02. 21:00 0.9° C wolkig
Ortszeit Relative Feuchte Sichtweite
So, 17.02. 19:00 71% 27 km
So, 17.02. 13:00 54% 30 km
So, 17.02. 7:00 94% 9 km
So, 17.02. 1:00 95% 8 km
Sa, 16.02. 19:00 77% 29 km
Sa, 16.02. 13:00 57% 30 km
Sa, 16.02. 7:00 94% 10 km
Sa, 16.02. 1:00 95% 6 km
Ortszeit Relative Feuchte Sichtweite
Mo, 18.02. 0:00 91% 23 km
So, 17.02. 23:50 91% -
So, 17.02. 23:40 90% -
So, 17.02. 23:30 91% 18 km
So, 17.02. 23:20 91% -
So, 17.02. 23:10 91% -
So, 17.02. 23:00 88% 29 km
So, 17.02. 22:30 86% 28 km
So, 17.02. 22:00 88% 22 km
So, 17.02. 21:30 87% 21 km
So, 17.02. 21:00 85% 22 km
Ortszeit Niederschlagsmenge Niederschlagsart
So, 17.02. 19:00 0.0 l/m2 in 12 Std. -
So, 17.02. 13:00 0.0 l/m2 in 6 Std. -
So, 17.02. 7:00 0.0 l/m2 in 12 Std. -
So, 17.02. 1:00 0.0 l/m2 in 6 Std. -
Sa, 16.02. 19:00 0.0 l/m2 in 12 Std. -
Sa, 16.02. 13:00 0.0 l/m2 in 6 Std. -
Sa, 16.02. 7:00 0.0 l/m2 in 12 Std. -
Sa, 16.02. 1:00 0.0 l/m2 in 6 Std. -
Ortszeit Niederschlagsmenge Niederschlagsart
Mo, 18.02. 0:00 0.0 l/m2 in 1 Std. -
So, 17.02. 23:50 keine Meldung -
So, 17.02. 23:40 keine Meldung -
So, 17.02. 23:30 0.0 l/m2 in 1 Std. -
So, 17.02. 23:20 keine Meldung -
So, 17.02. 23:10 keine Meldung -
So, 17.02. 23:00 0.0 l/m2 in 1 Std. -
So, 17.02. 22:30 0.0 l/m2 in 1 Std. -
So, 17.02. 22:00 0.0 l/m2 in 1 Std. -
So, 17.02. 21:30 0.0 l/m2 in 1 Std. -
So, 17.02. 21:00 0.0 l/m2 in 1 Std. -
Ortszeit Stärke Spitze Richtung
km/h Bft. km/h Grad Sektor
So, 17.02. 19:00 4 1 22 160° S
So, 17.02. 13:00 11 2 18 140° SO
So, 17.02. 7:00 4 1 7 360° N
So, 17.02. 1:00 4 1 7 360° N
Sa, 16.02. 19:00 4 1 22 140° SO
Sa, 16.02. 13:00 9 2 24 160° S
Sa, 16.02. 7:00 7 2 14 340° N
Sa, 16.02. 1:00 6 1 11 360° N
Ortszeit Stärke Spitze Richtung
km/h Bft. km/h Grad Sektor
Mo, 18.02. 0:00 4 1 4 10° N
So, 17.02. 23:50 4 1 - 10° N
So, 17.02. 23:40 4 1 - 20° N
So, 17.02. 23:30 4 1 4 340° N
So, 17.02. 23:20 4 1 - 340° N
So, 17.02. 23:10 4 1 - 10° N
So, 17.02. 23:00 0 0 7 - -
So, 17.02. 22:30 4 1 7 350° N
So, 17.02. 22:00 4 1 7 340° N
So, 17.02. 21:30 2 1 6 50° NO
So, 17.02. 21:00 4 1 4 350° N
Ortszeit Untergrenze Bedeckung Gattung
total tief tief mittel hoch
So, 17.02. 19:00 9000 m 6/8 0/8 - - -
So, 17.02. 13:00 - 0/8 0/8 - - -
So, 17.02. 7:00 - 0/8 0/8 - - -
So, 17.02. 1:00 - 0/8 0/8 - - -
Sa, 16.02. 19:00 - 0/8 0/8 - - -
Sa, 16.02. 13:00 - 0/8 0/8 - - -
Sa, 16.02. 7:00 10500 m 8/8 0/8 - - -
Sa, 16.02. 1:00 - 0/8 0/8 - - -
Ortszeit Bedeckungsgrad in Achtel und Wolkenuntergrenze
Mo, 18.02. 0:00 8(9000m) 8(10500m) 8(10500m)
So, 17.02. 23:50 8(9000m) 8(10500m) 8(10500m)
So, 17.02. 23:40 8(9000m) 8(10500m) 8(10500m)
So, 17.02. 23:30 8(9000m) 8(10500m) 8(10500m)
So, 17.02. 23:20 8(9000m) 8(10500m) 8(10500m)
So, 17.02. 23:10 8(9000m) 8(10500m) 8(10500m)
So, 17.02. 23:00 8(9000m) 8(9000m) 8(10500m)
So, 17.02. 22:30 8(9000m) 8(9000m) 8(10500m)
So, 17.02. 22:00 8(8700m) 8(10500m) 8(10500m)
So, 17.02. 21:30 8(8700m) 8(10500m) 8(10500m)
So, 17.02. 21:00 6(8700m) 8(9000m) 8(10500m)
Ortszeit Luftdruck NN (hPa) Tendenz (hPa in 3 Std.)
So, 17.02. 19:00 1026 - 0,4
So, 17.02. 13:00 1028 - 1,2
So, 17.02. 7:00 1031 - 0,1
So, 17.02. 1:00 1031 - 0,4
Sa, 16.02. 19:00 1030 + 0,3
Sa, 16.02. 13:00 1031 - 0,5
Sa, 16.02. 7:00 1033 + 0,1
Sa, 16.02. 1:00 1034 - 0,6
Ortszeit Luftdruck NN (hPa) Tendenz (hPa in 3 Std.)
Mo, 18.02. 0:00 1027 - 0,2
So, 17.02. 23:50 1027 keine Meldung
So, 17.02. 23:40 1027 keine Meldung
So, 17.02. 23:30 1027 - 0,1
So, 17.02. 23:20 1027 keine Meldung
So, 17.02. 23:10 1027 keine Meldung
So, 17.02. 23:00 1027 + 0,1
So, 17.02. 22:30 1027 + 0,1
So, 17.02. 22:00 1027 + 0,3
So, 17.02. 21:30 1027 + 0,1
So, 17.02. 21:00 1027 + 0,3
Ortszeit Schneehöhe (cm)
So, 17.02. 19:00 0
So, 17.02. 13:00 0
So, 17.02. 7:00 0
So, 17.02. 1:00 0
Sa, 16.02. 19:00 0
Sa, 16.02. 13:00 0
Sa, 16.02. 7:00 0
Sa, 16.02. 1:00 0
Ortszeit Schneehöhe (cm)
Mo, 18.02. 0:00 0
So, 17.02. 23:50 0
So, 17.02. 23:40 0
So, 17.02. 23:30 0
So, 17.02. 23:20 0
So, 17.02. 23:10 0
So, 17.02. 23:00 0
So, 17.02. 22:30 0
So, 17.02. 22:00 0
So, 17.02. 21:30 0
So, 17.02. 21:00 0
Link zu dieser Seite / Seite empfehlen

Das Wetter in ...